Regional Weather Roundup
Issued by NWS

Home | Current Version | Previous Version | Text Only | Print | Product List | Glossary On
Versions: 1 2 3 4 5 6 7 8 9 10 11 12 13 14 15 16 17 18 19 20 21 22 23 24 25 26 27 28 29 30 31 32 33 34 35 36 37 38 39 40 41 42 43 44 45 46 47 48 49 50
000
ASUS43 KBIS 230731
RWRND
NORTH DAKOTA REGIONAL WEATHER ROUNDUP
NATIONAL WEATHER SERVICE EASTERN NORTH DAKOTA/GRAND FORKS ND
200 AM CDT TUE MAY 23 2017

  NOTE: "FAIR" INDICATES FEW OR NO CLOUDS BELOW 12,000 FEET WITH NO
  SIGNIFICANT WEATHER AND/OR OBSTRUCTIONS TO VISIBILITY.

NDZ001>003-009>011-017-230800-
...NORTHWEST NORTH DAKOTA...

CITY           SKY/WX    TMP DP  RH WIND       PRES   REMARKS
WILLISTON      FAIR      39  34  82 N3        30.16R
MINOT          FAIR      47  37  68 NW10      30.10R
MINOT AFB      FAIR      40  35  83 NW10      30.09S WCI  33
$$

NDZ018>021-031>035-040>046-230800-
...SOUTHWEST NORTH DAKOTA...

CITY           SKY/WX    TMP DP  RH WIND       PRES   REMARKS
BISMARCK       CLOUDY    52  39  61 NW8       30.07F
DICKINSON      MOCLDY    44  34  67 N8        30.12R
GARRISON         N/A     45  37  73 NW8       30.09F
HETTINGER      CLOUDY    50  34  54 N12       30.12S
$$

NDZ004>008-012>016-024-026-027-054-230800-
...NORTHEAST NORTH DAKOTA...

CITY           SKY/WX    TMP DP  RH WIND       PRES   REMARKS
GRAND FORKS    CLOUDY    49  46  90 N13       29.94S
GRAND FORKS AF CLOUDY    48  45  87 N14       29.95S
DEVILS LAKE    CLOUDY    47  41  80 N17       30.02S
$$

NDZ022-023-025-028>030-036>039-047>053-230800-
...SOUTHEAST NORTH DAKOTA...

CITY           SKY/WX    TMP DP  RH WIND       PRES   REMARKS
JAMESTOWN      CLOUDY    46  44  93 N15       29.96F
FARGO          CLOUDY    48  46  93 N13       29.90F
WAHPETON       CLOUDY    46  43  87 NW8       29.89F
$$




USA.gov is the U.S. government's official web portal to all federal, state and local government web resources and services.